Other Public Products
Issued by NWS Grand Forks, ND

Home | Current Version | Previous Version | Text Only | Print | Product List | Glossary Off
Versions: 1 2 3 4 5 6 7 8 9 10 11 12 13 14 15 16 17 18 19 20 21 22 23 24 25 26 27 28 29 30 31 32 33 34 35 36 37 38 39 40 41 42 43 44 45 46 47 48 49 50

000
FPUS83 KFGF 060110
OPUFGF
PRAIRIE TO PINES WEATHER ROUNDUP
NATIONAL WEATHER SERVICE EASTERN NORTH DAKOTA/GRAND FORKS ND
700 PM CST THU MAR 05 2015

 **SATELLITE DATA USED TO AUGMENT SKY COVER AT AUTOMATED STATIONS**
 *****  WEATHER ACROSS EASTERN NORTH DAKOTA  *****

CITY           SKY/WX    TMP DP  RH WIND       PRES   REMARKS
GRAND FORKS    PTCLDY    19  10  68 S13       30.09F WCI   6
GRAND FORKS AF CLEAR     23  10  58 S15       30.07F WCI  10
GRAND CITY NWS   N/A     18 N/A N/A S13         N/A  WCI   4
BUXTON         NOT AVBL
DEVILS LAKE    CLEAR     21  12  68 SW8       30.02S WCI  12
FARGO          CLEAR     20   8  60 S15       30.18F WCI   6
WAHPETON ARPT  CLEAR     16   9  73 S13       30.23S WCI   2
$$

 *****  WEATHER ACROSS CENTRAL AND WESTERN NORTH DAKOTA  *****

CITY           SKY/WX    TMP DP  RH WIND       PRES   REMARKS
JAMESTOWN      CLEAR     20  12  71 S13       30.06F WCI   7
BISMARCK       CLEAR     32  12  43 W7        30.07R
MINOT          CLEAR     26  13  57 SW10      29.98F WCI  16
MINOT AFB      CLEAR     22  16  77 SW9       29.97F WCI  12
GARRISON         N/A     23  14  68 W7        30.02F WCI  15
WILLISTON      MOCLDY    34  21  59 SW8       30.01F
DICKINSON      PTCLDY    30  11  45 NW9       30.03R WCI  22
HETTINGER      CLEAR     29   9  43 NW7       30.08R WCI  22
$$

 *****  OTHER OBSERVATIONS NORTHEAST NORTH DAKOTA  *****

CITY           SKY/WX    TMP DP  RH WIND       PRES   REMARKS
WALHALLA         N/A     25  14  63 SW17G28   29.95F WCI  11
LANGDON        NOT AVBL
CAVALIER       FAIR      23  12  63 S10       30.01F WCI  12
GRAFTON        NOT AVBL
CANDO          MOCLDY    18  12  79 SW8       30.00F WCI   7
FORT TOTTEN    NOT AVBL
ROLLA          MOCLDY    18  10  73 SW16      29.94F WCI   3
RUGBY          FAIR      19  12  73 SW10      30.00F WCI   8
 ***** THE ABOVE OBSERVATIONS ARE NON NWS ARE NOT QUALITY
        CONTROLLED AND MAY MIS-REPORT RAIN FOR SNOW...
$$

 *****  OTHER OBSERVATIONS SOUTHEAST NORTH DAKOTA *****

CITY           SKY/WX    TMP DP  RH WIND       PRES   REMARKS
COOPERSTOWN    NOT AVBL
VALLEY CITY    FLURRIES  19  14  79 S14       30.09F WCI   6
OAKES            N/A     18  12  79 S10       30.13F WCI   6
GWINNER        PTCLDY    19  10  68 S10       30.16F WCI   8
BUFFALO        NOT AVBL
WYNDMERE       NOT AVBL
 ***** THE ABOVE OBSERVATIONS ARE NON NWS ARE NOT QUALITY
       CONTROLLED AND MAY MIS-REPORT RAIN FOR SNOW...
$$

  *****  WEATHER ACROSS NORTHERN MINNESOTA  *****

CITY           SKY/WX    TMP DP  RH WIND       PRES   REMARKS
FLAG ISLAND    CLEAR     10   1  67 S14       30.04F WCI  -5
WARROAD        CLEAR     14   5  67 S12G17    30.07F WCI   0
ROSEAU         CLEAR     16   7  67 S16       30.06F WCI   0
HALLOCK        NOT AVBL
THF RVR FALLS  CLEAR     16   5  62 S16       30.11F WCI   0
HALSTAD        NOT AVBL
FOSSTON        CLEAR     10   1  67 S20G25    30.14F WCI  -8
BAUDETTE       CLEAR     15   0  51 SW15      30.08F WCI   0
WASKISH        CLEAR     16  -2  45 S7        30.13F WCI   6
CROOKSTON      CLEAR     19  10  68 S17       30.14F WCI   4
$$
  *****  WEATHER ACROSS CENTRAL AND WEST MINNESOTA  *****

CITY           SKY/WX    TMP DP  RH WIND       PRES   REMARKS
BEMIDJI        CLEAR     13  -3  49 S9        30.16S WCI   0
PARK RAPIDS    CLEAR     10  -3  55 S8        30.20S WCI  -2
WADENA         CLEAR      7  -2  66 S7        30.23F WCI  -5
DETROIT LAKES  CLEAR     14   5  67 S8        30.20S WCI   3
MOORHEAD       CLEAR     18   9  68 S15       30.20F WCI   3
FERGUS FALLS   CLEAR     12   3  67 S12       30.26F WCI  -2
ELBOW LAKE     FAIR      12   4  72 S12       30.24F WCI  -2
MORRIS MN      CLEAR     12   7  79 S10       30.25F WCI  -1
STAPLES        CLEAR      9   0  66 S5        30.25F WCI   0
WHEATON        CLEAR     12   7  79 SE9       30.25F WCI   0
$$
  *****  WEATHER ELSEWHERE ACROSS MINNESOTA  *****

CITY           SKY/WX    TMP DP  RH WIND       PRES   REMARKS
DULUTH         CLEAR      9  -6  50 SW12      30.24R WCI  -6
INTRNTL FALLS  CLEAR     13  -6  42 S7        30.12F WCI   3
ELY            CLEAR      9  -8  47 SW6       30.17S WCI  -1
CLOQUET        CLEAR      9  -6  52 SW8       30.26S WCI  -4
BRAINERD       CLEAR      6  -3  66 S8        30.28S WCI  -7
HIBBING        CLEAR      9  -8  46 S7        30.20S WCI  -2
ALEXANDRIA     CLEAR     12   1  61 S7        30.26R WCI   1
SAINT CLOUD    CLEAR      8  -1  66 S8        30.33F WCI  -4
MINNEAPOLIS    CLEAR     14   0  53 S8        30.39F WCI   3
$$

  *****  WEATHER ACROSS SOUTH DAKOTA  *****

CITY           SKY/WX    TMP DP  RH WIND       PRES   REMARKS
SIOUX FALLS    PTCLDY    27   6  41 S13       30.25F WCI  16
BROOKINGS      NOT AVBL
WATERTOWN      PTCLDY    18   7  62 S7        30.17F WCI   9
HURON          CLEAR     29   9  43 S8        30.17F WCI  21
SISSETON         N/A     17   9  70 S7        30.20F WCI   8
ABERDEEN       CLEAR     16   8  71 S8        30.16F WCI   5
MITCHELL       MOCLDY    30   7  37 SE7       30.20F WCI  23
PIERRE         CLEAR     28  17  63 S9        30.11S WCI  19
MOBRIDGE       CLEAR     28  13  53 S8        30.06R WCI  20
RAPID CITY     CLEAR     33  18  53 N13       30.11S WCI  24
$$

  *****  SOME WEATHER IN NEARBY STATES *****

CITY           SKY/WX    TMP DP  RH WIND       PRES   REMARKS
GLASGOW MT     MOCLDY    41  17  38 W9        30.04R
GREAT FALLS MT PTCLDY    43  11  27 SW16      30.10S
CHEYENNE WY    CLEAR     32  15  49 S9        30.21R WCI  24
SCOTTSBLUFF NE CLEAR     36  16  44 W6        30.21R
OMAHA NE       PTCLDY    28   7  41 S14       30.40F WCI  17
DES MOINES IA  CLEAR     20   1  43 SE6       30.47F WCI  12
DAVENPORT IA   PTCLDY     7  -2  66 NW3       30.55S
CHICAGO IL     FAIR      11  -2  56 W9        30.53R WCI  -2
EAU CLAIRE WI  CLEAR      5  -7  57 SW7       30.42S WCI  -7
LA CROSSE WI   CLEAR     10  -3  55 S10       30.48R WCI  -4
$$

  *****  SOME NATIONAL WEATHER *****

CITY           SKY/WX    TMP DP  RH WIND       PRES   REMARKS
LA GUARDIA NY  CLOUDY    24  13  62 NW10      30.26R WCI  14
RALEIGH NC     LGT RAIN  34  31  88 N6G20     30.25R
ATLANTA GA     CLOUDY    34  27  75 NW20G26   30.24R WCI  23
NEW ORLEANS LA CLOUDY    38  29  70 N21G30    30.38R
OKLAHOMA CITY  CLEAR     33  14  45 SW6       30.49S
ALBUQUERQUE NM CLEAR     51   0  12 N16       30.30S
SALT LAKE CITY PTCLDY    47  21  35 N6        30.40S
LOS ANGELES CA SUNNY     67  28  23 W13       30.18S
BOISE ID       CLEAR     54  19  25 CALM      30.33F
SEATTLE WA     CLOUDY    54  31  41 W3        30.37S
$$

*** WEATHER ACROSS MANITOBA...SASKATCHEWAN AND ONTARIO ***
                ***ONTARIO***

CITY           SKY/WX    TMP DP  RH WIND       PRES   REMARKS
GERALDTON      MOCLDY     5  -9  51 S9        30.08F WCI  -9
THUNDER BAY    CLEAR      9  -2  61 SW7       30.21S WCI  -3
SIOUX LOOKOUT  MOCLDY     9  -8  47 SW10G17   30.02F WCI  -6
TORONTO        CLEAR      9  -8  47 NW6       30.44R WCI  -1
BIG TROUT LK   CLOUDY     5  -6  61 S9        29.79F WCI  -9
PICKLE LAKE    MOCLDY     7  -9  47 SW13G23   29.92F WCI  -9
DRYDEN         MOCLDY     9  -6  52 S12G18    30.02F WCI  -6
KENORA         MOCLDY    10   0  61 S18G25    30.00F WCI  -8
$$
                *** MANITOBA***

CITY           SKY/WX    TMP DP  RH WIND       PRES   REMARKS
BRANDON        PTCLDY    16   9  73 W16       29.89F WCI   0
DAUPHIN        NOT AVBL
ISLAND LAKE    FLURRIES  12  -2  52 SW10      29.73F WCI  -1
PILOT MOUND    NOT AVBL
THE PAS        PTCLDY    18   5  57 W13       29.79R WCI   4
THOMPSON       FLURRIES  12   0  57 W9G17     29.68R WCI   0
WINNIPEG       MOCLDY    18  10  73 S17       29.95F WCI   2
LYNN LAKE      MOCLDY    16   7  67 NW9       29.67R WCI   4
CHURCHILL      LGT SNOW   0  -4  85 SE6       29.59S WCI -12
GILLAM         CLOUDY     9  -6  52 SW13      29.64S WCI  -7
$$
                ***SASKATCHEWAN***

CITY           SKY/WX    TMP DP  RH WIND       PRES   REMARKS
ESTEVAN        MOCLDY    25  18  74 W12       29.96S WCI  14
KINDERSLEY     MOCLDY    30  23  74 W8        29.99S WCI  23
LLOYDMINSTER   PTCLDY    27  19  74 SW9       29.94S WCI  17
PRINCE ALBERT  PTCLDY    27  12  54 W12       29.91R WCI  16
REGINA         PTCLDY    21  16  79 NW9       29.96S WCI  11
YORKTON        CLEAR     19  10  68 W12       29.89R WCI   7



USA.gov is the U.S. government's official web portal to all federal, state and local government web resources and services.